Temperature
16 16 16 16 16 16 16 16 16 16 15 15 15 15 15 15 15 15 14 14 14 14 14 14 14 13 13 13 13 13 13 13 12 12 12 12 12 12 12 12 12 12 12
16 16 16 16 16 17 16 16 16 16 15 15 15 15 15 15 15 15 14 14 14 14 14 14 14 13 13 13 13 13 13 12 12 11 11 11 12 12 12 12 12 11 11
15 15 16 16 16 16 16 16 16 16 15 15 15 15 15 15 14 14 14 14 14 14 14 14 13 13 13 13 13 13 12 12 12 11 11 11 12 11 11 11 11 11 10
15 15 15 16 16 16 16 16 16 15 15 15 15 15 15 14 14 14 14 14 14 14 14 13 13 13 13 13 12 12 12 12 11 11 11 10 10 10 10 10 10 10 10
15 15 15 15 16 16 16 16 15 15 15 15 15 15 14 14 14 14 14 14 13 13 13 13 13 12 12 12 12 12 11 11 11 10 10 10 9 9 9 9 9 9 9
14 14 14 15 15 15 15 15 15 15 15 15 14 14 14 14 13 13 13 13 13 13 12 12 12 12 12 11 11 11 11 11 10 10 10 9 9 9 8 8 8 8 8
13 13 13 14 14 14 14 14 14 14 14 14 13 13 13 13 13 13 12 12 12 12 12 11 11 11 11 11 11 10 10 10 10 9 9 9 9 8 8 8 7 7 7
12 12 12 13 13 13 13 13 13 13 13 13 13 12 12 12 12 12 11 11 11 11 11 11 10 10 10 10 10 9 9 9 9 9 9 8 8 8 8 7 7 6 6
11 11 11 11 12 12 12 12 12 12 12 12 12 12 11 11 11 11 11 10 10 10 10 10 9 9 9 9 9 9 8 8 8 8 8 8 8 8 7 7 6 6 5
9 10 10 10 11 11 11 11 11 11 11 11 11 10 10 10 10 10 10 9 9 9 9 9 8 8 8 8 8 8 8 8 7 7 7 7 7 7 7 6 6 5 5
9 9 9 9 10 10 10 10 10 10 10 10 10 10 9 9 9 9 9 8 8 8 8 8 7 7 7 7 7 7 7 7 7 6 6 6 6 6 6 5 5 5 4
9 8 8 9 9 9 10 10 10 9 9 9 9 9 8 8 8 8 8 7 7 7 7 7 6 6 6 6 6 6 6 6 6 5 5 5 5 5 5 5 4 4 4
8 8 8 8 9 9 9 9 9 9 9 8 8 8 8 7 7 7 6 6 6 6 6 6 5 5 5 5 5 5 5 5 5 5 4 4 4 4 4 4 4 3 3
8 8 8 9 9 9 9 9 9 8 8 8 7 7 7 6 6 6 5 5 5 5 5 5 4 4 4 4 4 4 4 4 4 4 4 4 4 3 3 3 3 3 3
8 8 9 9 9 9 9 9 8 8 7 7 7 6 6 6 5 5 5 4 4 4 4 4 4 3 3 3 3 3 3 3 3 3 3 3 3 3 2 2 2 2 2
9 9 9 9 9 9 9 9 8 8 7 6 6 5 5 5 4 4 3 3 3 3 3 3 3 3 3 3 3 3 3 2 2 2 2 2 2 2 2 2 2 1 1
9 9 9 9 10 9 9 9 8 7 7 6 5 5 4 4 4 3 3 2 2 2 2 2 2 2 2 2 2 2 2 2 2 2 1 1 1 1 1 1 1 1 0
9 9 9 9 9 9 9 8 8 7 6 6 5 4 4 3 3 2 2 1 1 1 1 1 1 1 1 1 1 1 1 1 1 1 1 1 0 0 0 -0 -0 -0 -0
9 9 9 9 9 9 9 8 7 7 6 5 5 4 3 3 2 2 1 1 1 0 0 0 0 0 0 0 1 1 1 1 0 0 0 -0 -0 -0 -1 -1 -1 -1 -1
9 9 9 9 9 9 8 8 7 6 6 5 4 3 3 2 2 1 1 0 -0 -0 -0 -0 -0 -0 -0 -0 -0 -0 -0 -0 -0 -0 -1 -1 -1 -1 -1 -1 -2 -2 -2
8 8 8 8 8 8 8 7 7 6 5 4 3 3 2 2 1 0 0 -0 -1 -1 -1 -1 -1 -1 -1 -1 -1 -1 -1 -1 -1 -1 -1 -1 -1 -1 -2 -2 -2 -2 -3
8 8 8 8 8 8 7 7 6 6 4 4 3 2 2 1 1 -0 -0 -1 -1 -1 -1 -1 -1 -1 -1 -1 -1 -1 -1 -1 -1 -1 -1 -2 -2 -2 -2 -2 -3 -3 -3
7 7 7 7 7 7 7 6 5 5 4 3 2 2 1 1 0 -0 -1 -1 -1 -1 -1 -1 -1 -1 -1 -1 -1 -1 -1 -1 -1 -2 -2 -2 -2 -2 -2 -3 -3 -3 -3
7 7 7 7 7 6 6 5 4 4 3 3 2 1 1 0 -0 -1 -1 -1 -1 -1 -1 -1 -1 -1 -1 -1 -1 -1 -1 -1 -2 -2 -2 -2 -2 -3 -3 -3 -3 -3 -4
6 6 6 6 6 5 5 4 4 3 3 2 1 1 0 -0 -0 -1 -1 -1 -0 -1 -1 -1 -1 -1 -1 -1 -1 -1 -1 -2 -2 -2 -2 -2 -3 -3 -3 -3 -3 -4 -4
6 6 6 5 5 5 4 4 3 3 2 2 1 1 0 -0 -0 -0 -1 -1 -1 -1 -1 -1 -1 -1 -1 -1 -1 -1 -2 -2 -2 -3 -2 -2 -3 -3 -3 -3 -3 -4 -4
Wind_Speed
7 5 5 6 7 7 8 9 9 9 8 6 6 6 6 6 5 6 7 7 8 8 9 7 8 7 7 8 9 8 8 7 6 5 7 9 10 10 8 7 7 6 6
9 7 6 7 8 8 8 8 8 7 7 6 6 4 4 4 4 4 4 5 6 7 7 8 6 6 7 8 8 7 6 6 5 5 6 6 7 7 5 5 4 5 4
13 10 9 8 8 8 8 7 7 6 6 6 5 4 3 3 4 4 3 3 4 5 5 6 6 6 6 6 7 7 9 8 7 7 6 6 6 4 3 3 3 3 3
13 11 10 9 8 7 6 7 6 6 5 5 6 7 6 6 5 4 3 2 2 2 3 4 5 5 5 6 7 7 7 8 7 6 7 8 7 6 5 3 2 2 3
13 12 10 9 8 7 6 6 6 5 4 4 5 5 5 4 3 3 3 3 1 1 2 3 3 4 4 5 6 6 6 6 7 6 5 7 7 8 7 7 5 2 1
12 11 9 8 8 7 7 6 7 6 4 4 4 5 5 5 5 4 4 3 2 1 1 2 2 3 3 4 4 5 5 5 6 6 5 5 5 5 6 7 6 4 2
10 11 11 11 10 10 8 7 7 6 5 5 4 4 3 3 4 3 3 3 2 1 1 2 2 2 2 3 3 3 3 4 4 4 4 4 4 3 4 5 5 4 2
9 10 12 12 11 10 9 9 8 7 6 5 4 3 3 2 1 1 1 1 1 1 1 2 2 2 2 2 2 1 1 1 1 1 1 1 1 1 2 2 3 4 3
8 10 11 11 11 11 10 9 8 7 6 5 4 4 3 3 2 2 1 1 0 1 1 1 2 2 2 2 1 0 0 1 1 1 2 1 1 1 1 1 2 4 4
7 9 10 11 10 10 9 8 8 7 6 5 4 3 3 3 2 2 1 1 1 1 1 1 1 1 2 1 1 1 2 3 3 3 3 3 2 2 2 1 1 1 2
7 9 10 10 10 9 9 8 8 7 6 5 4 4 3 3 2 2 1 1 1 1 1 1 1 1 2 2 2 3 3 4 4 4 4 5 4 3 3 3 2 2 0
7 9 10 10 10 10 9 8 8 7 6 5 5 4 4 3 3 2 2 1 1 1 1 1 2 2 2 3 3 4 4 5 5 5 6 6 5 5 4 4 4 3 3
8 9 10 10 11 10 10 9 8 7 7 6 6 5 4 4 3 3 2 2 2 2 2 2 3 3 3 4 4 5 6 6 6 6 6 6 6 6 5 5 4 3 3
9 11 11 11 11 10 10 9 9 8 8 7 6 6 5 4 4 3 3 3 3 3 3 3 4 4 4 4 5 6 6 7 7 7 7 6 6 6 5 4 4 4 4
10 12 13 13 12 11 11 10 9 9 9 8 7 6 5 5 5 4 4 4 4 3 4 4 4 4 4 4 5 5 6 7 7 7 7 7 8 7 6 4 4 3 3
13 13 14 14 14 13 12 11 11 10 10 9 8 7 7 6 6 5 5 5 4 4 4 4 4 4 4 6 6 6 6 6 6 6 6 6 6 7 8 8 8 6 3
13 14 14 15 14 14 13 13 12 11 10 10 9 8 8 7 7 6 6 6 5 5 4 4 4 5 6 7 7 7 5 5 5 4 4 4 4 5 5 6 7 7 7
12 13 13 13 12 12 12 11 11 12 11 10 10 9 9 8 8 7 7 6 5 5 4 4 4 4 5 7 7 7 5 5 4 3 3 3 3 3 3 3 4 4 4
10 10 10 10 10 11 12 12 12 12 11 11 11 10 10 9 9 8 8 6 6 5 5 4 4 4 5 6 7 6 4 4 3 3 2 2 2 3 2 2 2 2 2
6 6 6 8 9 10 12 12 12 12 12 11 11 10 10 10 9 8 8 6 6 6 5 5 4 5 5 6 7 6 3 3 3 3 2 1 1 2 2 1 1 1 1
2 4 6 7 8 10 12 12 11 12 10 10 10 10 10 9 9 8 7 7 6 6 6 5 5 5 5 6 7 7 3 3 3 3 3 2 2 2 2 2 2 1 1
2 4 5 6 7 9 11 10 10 9 9 10 10 10 9 8 8 8 8 8 8 7 7 6 6 5 5 6 7 8 7 5 4 3 3 3 3 3 3 3 2 2 3
2 3 4 5 6 8 9 9 8 9 10 10 10 9 9 9 9 9 9 8 8 7 7 6 6 6 5 6 9 9 9 8 5 4 4 4 4 4 4 4 4 4 3
3 3 5 5 6 7 8 7 8 9 10 10 10 9 9 9 8 8 8 8 8 8 7 7 7 6 6 6 6 7 7 8 7 5 5 6 6 5 5 4 4 4 4
3 4 5 5 6 6 7 7 8 10 10 10 9 9 9 9 9 8 8 9 9 9 9 8 7 7 7 9 11 8 7 6 6 5 5 5 5 5 5 5 5 5 4
3 4 4 5 5 6 7 7 9 10 10 9 9 8 8 8 8 8 7 10 10 12 14 11 9 8 9 8 12 14 12 11 10 7 6 6 6 6 6 6 6 6 6
Wind_Direction
227 212 208 202 197 199 200 200 199 200 199 197 201 207 211 212 214 220 227 229 233 233 232 239 244 239 240 245 247 248 251 251 252 261 273 269 261 259 260 260 266 268 272
222 212 205 197 196 194 194 194 193 194 197 200 199 204 203 213 214 209 221 231 235 237 237 240 245 241 245 248 248 243 247 250 233 245 271 280 272 242 243 254 263 278 285
229 217 207 197 192 189 188 186 185 186 192 194 188 175 182 195 201 208 211 225 233 236 238 243 246 247 242 247 247 242 243 253 245 235 248 265 273 291 232 237 260 282 297
230 223 211 202 191 183 175 176 171 169 173 187 197 200 209 219 220 216 210 211 224 241 249 254 255 255 250 251 253 249 248 253 254 241 238 252 273 274 277 242 238 286 315
227 221 210 200 185 171 164 160 155 149 152 169 189 200 211 216 206 206 210 208 201 260 287 280 273 267 264 262 262 259 250 247 252 250 245 246 251 248 257 270 264 259 310
228 221 205 187 176 164 157 154 150 141 142 151 164 182 191 195 200 210 216 216 214 228 324 317 296 288 284 277 273 270 264 258 256 257 252 250 248 245 245 257 265 268 275
219 209 197 188 178 169 163 159 153 142 136 133 137 150 168 187 205 215 220 223 225 237 324 332 313 307 301 294 286 275 269 268 261 259 256 255 258 264 254 259 265 262 259
218 206 197 188 179 172 166 163 157 147 140 133 125 123 130 144 153 171 204 221 248 329 350 345 341 335 327 313 298 283 282 294 282 287 271 255 299 295 262 257 255 256 241
216 203 191 184 177 172 169 165 158 151 145 138 133 125 120 121 126 128 125 108 62 17 360 0 355 358 355 346 327 10 45 65 58 58 68 76 52 35 9 317 262 254 250
208 196 187 180 175 169 163 161 160 154 148 145 137 128 123 120 126 133 128 115 73 43 15 14 16 19 28 40 72 83 80 95 78 72 81 77 64 61 47 44 22 274 258
200 189 182 177 170 164 164 163 161 158 154 150 144 142 134 130 133 132 123 114 93 71 56 47 53 56 57 67 92 94 95 97 90 84 86 81 73 75 62 59 62 55 9
192 185 180 175 174 173 173 171 170 168 163 157 154 149 144 146 149 140 127 118 108 89 83 89 91 80 75 80 96 98 94 97 94 90 90 83 79 75 64 62 63 60 45
192 188 186 186 184 182 180 178 177 173 166 164 163 161 162 163 158 146 133 125 120 112 103 100 96 92 87 88 92 97 95 93 90 89 88 84 81 75 66 63 64 61 58
207 200 197 195 192 189 186 183 181 175 170 171 173 174 172 166 156 147 142 134 127 120 111 104 99 97 96 96 100 102 102 97 89 82 81 78 78 78 75 69 65 67 76
219 210 206 201 196 193 191 188 183 179 176 177 179 176 170 162 158 156 149 140 132 124 121 117 112 107 103 103 110 110 108 104 96 85 80 76 73 68 66 66 64 66 76
228 218 212 207 202 198 194 189 187 182 179 181 180 172 171 169 168 164 157 149 141 136 130 123 121 115 106 112 114 114 111 109 108 101 92 86 80 77 74 68 61 54 64
235 224 216 211 207 202 195 192 187 178 181 183 178 174 175 175 172 167 163 160 154 146 137 131 128 120 118 122 120 115 116 113 109 110 108 96 83 75 80 81 80 70 60
239 229 220 213 207 197 191 185 177 178 181 182 180 178 178 177 174 172 170 166 161 155 148 141 138 131 127 130 130 128 119 116 114 113 112 114 110 90 80 87 80 73 66
244 233 219 207 195 187 180 175 176 180 183 186 184 182 181 179 178 179 175 171 168 161 159 155 153 151 143 144 148 149 140 136 135 133 131 126 126 121 128 110 97 92 86
244 222 199 186 182 178 172 175 179 183 190 188 184 181 182 183 183 180 175 173 172 170 167 165 171 174 171 163 169 175 166 165 164 169 172 181 185 153 189 208 198 202 115
214 182 174 176 176 170 172 180 184 192 188 178 176 178 182 184 181 176 174 172 174 173 176 177 183 191 193 186 190 194 199 194 191 196 199 195 213 228 227 251 251 258 269
156 165 166 164 163 170 177 185 191 183 171 170 174 179 181 179 176 175 175 177 178 182 186 190 195 202 203 209 206 207 214 215 213 214 214 209 223 242 240 246 248 236 244
177 170 169 161 167 179 186 192 185 171 169 173 178 180 181 181 178 180 180 181 188 193 195 199 205 206 205 210 216 218 218 217 224 224 222 229 231 237 237 237 237 233 242
194 181 177 181 186 189 195 194 176 172 174 180 181 181 183 184 184 187 189 192 195 199 202 205 210 209 208 208 207 211 216 218 222 224 219 226 229 236 243 234 229 235 245
205 197 200 202 199 191 195 188 179 177 182 185 185 186 189 188 190 197 201 203 208 207 205 208 209 208 215 214 207 205 209 211 213 211 218 223 225 228 228 230 233 233 232
210 207 211 212 205 197 197 191 185 185 186 187 189 190 190 191 195 199 207 217 220 220 222 221 216 220 226 216 212 215 219 219 217 216 228 230 231 234 235 234 233 230 232
Height
1527 1527 1529 1531 1533 1536 1538 1540 1543 1545 1547 1548 1550 1552 1553 1554 1555 1556 1557 1558 1558 1559 1559 1559 1560 1560 1560 1559 1559 1558 1558 1557 1557 1555 1554 1553 1552 1551 1550 1550 1549 1548 1547
1523 1524 1526 1528 1530 1533 1535 1537 1540 1542 1544 1545 1547 1549 1550 1551 1552 1553 1553 1554 1554 1555 1555 1555 1555 1555 1555 1555 1554 1554 1553 1552 1552 1552 1550 1549 1549 1546 1545 1545 1544 1544 1543
1520 1521 1523 1525 1527 1530 1532 1534 1536 1539 1541 1542 1544 1545 1546 1547 1548 1549 1549 1549 1550 1550 1550 1550 1550 1550 1550 1549 1549 1549 1548 1547 1547 1547 1547 1546 1544 1543 1542 1541 1541 1540 1539
1516 1517 1519 1521 1523 1526 1528 1530 1533 1535 1537 1539 1540 1541 1542 1543 1544 1544 1545 1545 1545 1545 1545 1545 1545 1545 1544 1544 1544 1543 1542 1542 1541 1541 1541 1541 1540 1540 1538 1537 1536 1535 1535
1511 1513 1515 1517 1519 1522 1524 1526 1528 1531 1533 1535 1536 1537 1538 1539 1540 1540 1540 1540 1540 1540 1540 1540 1539 1539 1539 1538 1538 1537 1537 1536 1536 1536 1535 1535 1534 1534 1534 1533 1533 1532 1530
1506 1508 1510 1512 1515 1517 1520 1522 1524 1526 1529 1530 1532 1533 1534 1534 1535 1535 1535 1535 1535 1535 1534 1534 1534 1533 1533 1532 1532 1532 1531 1531 1530 1530 1530 1529 1529 1529 1529 1528 1527 1527 1526
1501 1503 1505 1507 1509 1512 1515 1518 1520 1523 1524 1526 1527 1528 1529 1530 1530 1530 1530 1530 1530 1529 1529 1529 1528 1528 1527 1527 1526 1526 1525 1525 1525 1524 1524 1524 1523 1524 1523 1523 1523 1522 1522
1496 1497 1499 1502 1505 1508 1511 1514 1517 1519 1521 1522 1523 1524 1525 1525 1525 1526 1526 1525 1525 1524 1524 1524 1523 1523 1522 1522 1521 1521 1520 1520 1519 1519 1519 1518 1518 1518 1518 1518 1519 1518 1518
1492 1493 1495 1498 1501 1505 1508 1511 1513 1515 1517 1518 1519 1520 1520 1521 1521 1521 1521 1521 1520 1520 1519 1519 1518 1518 1517 1517 1516 1516 1515 1515 1515 1514 1514 1514 1513 1513 1513 1513 1514 1515 1514
1488 1490 1492 1495 1498 1502 1505 1508 1510 1512 1514 1515 1516 1516 1516 1517 1517 1517 1516 1516 1516 1515 1515 1514 1514 1513 1513 1512 1512 1511 1511 1511 1510 1510 1510 1509 1509 1509 1509 1509 1509 1509 1510
1486 1487 1489 1492 1495 1499 1502 1505 1507 1509 1510 1511 1512 1513 1513 1513 1513 1513 1512 1512 1511 1511 1510 1510 1509 1509 1508 1508 1508 1507 1507 1507 1506 1506 1506 1506 1506 1505 1505 1505 1505 1505 1506
1484 1486 1488 1490 1493 1496 1499 1502 1504 1506 1507 1508 1509 1509 1509 1509 1509 1508 1508 1508 1507 1507 1507 1506 1506 1505 1505 1504 1504 1504 1503 1503 1503 1503 1503 1503 1503 1503 1502 1502 1502 1502 1503
1482 1484 1486 1488 1491 1494 1497 1499 1501 1503 1504 1505 1505 1506 1506 1505 1505 1505 1504 1504 1504 1503 1503 1503 1502 1502 1501 1501 1501 1501 1500 1501 1501 1501 1501 1501 1501 1500 1500 1500 1500 1500 1500
1480 1481 1483 1486 1488 1491 1494 1496 1498 1499 1500 1501 1502 1502 1502 1502 1502 1501 1501 1501 1501 1500 1500 1500 1499 1499 1499 1498 1498 1498 1498 1499 1499 1499 1499 1499 1499 1499 1499 1498 1498 1498 1498
1477 1478 1480 1482 1485 1487 1490 1492 1494 1496 1497 1498 1498 1499 1499 1498 1498 1498 1498 1498 1498 1498 1497 1497 1497 1497 1497 1497 1497 1497 1497 1497 1497 1497 1497 1497 1497 1497 1497 1497 1496 1496 1496
1473 1474 1476 1478 1480 1483 1486 1488 1490 1492 1493 1494 1494 1495 1495 1495 1495 1495 1495 1495 1495 1495 1495 1495 1495 1495 1495 1495 1495 1495 1496 1495 1495 1496 1496 1496 1495 1495 1495 1495 1495 1495 1494
1468 1469 1470 1473 1475 1478 1481 1483 1486 1487 1489 1490 1490 1491 1491 1491 1491 1491 1492 1492 1492 1493 1493 1493 1493 1493 1493 1494 1494 1494 1494 1494 1494 1494 1494 1494 1494 1494 1494 1493 1493 1493 1493
1462 1464 1466 1468 1471 1474 1476 1479 1481 1483 1484 1485 1486 1487 1487 1488 1488 1488 1489 1489 1490 1490 1491 1491 1492 1492 1492 1492 1492 1492 1493 1493 1493 1493 1493 1493 1493 1493 1492 1492 1492 1491 1491
1458 1459 1461 1463 1466 1469 1471 1474 1476 1478 1479 1481 1482 1483 1483 1484 1484 1485 1486 1487 1487 1488 1489 1489 1490 1490 1490 1490 1491 1491 1491 1491 1491 1492 1492 1492 1492 1492 1491 1491 1490 1490 1490
1454 1455 1457 1459 1462 1464 1467 1469 1471 1473 1475 1476 1478 1479 1480 1480 1481 1482 1483 1484 1485 1486 1487 1487 1488 1488 1489 1489 1489 1490 1490 1490 1490 1490 1490 1490 1490 1490 1490 1489 1489 1489 1488
1451 1452 1454 1456 1458 1461 1463 1465 1467 1469 1471 1473 1474 1475 1476 1477 1478 1479 1480 1482 1483 1484 1485 1485 1486 1486 1487 1487 1488 1488 1488 1489 1489 1489 1489 1488 1488 1488 1488 1488 1487 1487 1487
1449 1450 1452 1454 1456 1458 1460 1461 1463 1465 1467 1468 1470 1471 1472 1473 1474 1476 1477 1479 1480 1481 1482 1483 1484 1484 1485 1485 1486 1486 1487 1487 1487 1487 1487 1486 1486 1486 1486 1485 1485 1485 1484
1449 1449 1451 1452 1453 1455 1457 1458 1460 1462 1463 1465 1466 1467 1469 1470 1471 1473 1474 1476 1477 1478 1479 1480 1481 1482 1483 1483 1483 1484 1484 1484 1484 1484 1484 1484 1484 1483 1483 1483 1483 1482 1482
1448 1448 1449 1450 1451 1452 1454 1455 1456 1458 1459 1461 1462 1463 1465 1466 1467 1469 1471 1472 1473 1474 1476 1477 1478 1479 1479 1480 1481 1481 1481 1482 1482 1482 1481 1481 1481 1480 1480 1480 1479 1479 1478
1447 1447 1447 1448 1449 1449 1450 1451 1452 1454 1455 1457 1458 1459 1461 1462 1464 1465 1467 1468 1470 1471 1473 1474 1475 1476 1476 1477 1478 1478 1478 1479 1479 1478 1478 1478 1477 1477 1477 1476 1476 1475 1475
1444 1445 1445 1445 1445 1446 1447 1448 1449 1450 1451 1452 1453 1455 1456 1458 1460 1461 1463 1464 1466 1467 1468 1470 1471 1472 1473 1474 1474 1474 1475 1475 1475 1475 1474 1474 1474 1473 1473 1472 1472 1471 1471